This demonstration page uses our WeatherBlox Daily Observations layout. Learn more.

Left ArrowRight Arrow

38.83388, -104.82136

Hourly Observations for April 25, 2017

Temp ( °F °C ) Dew Point ( °F °C ) Humidity (%) Winds ( mph kmh ) Pressure ( in mb ) Visibility ( mi km ) Precip ( " mm )
12:58 am 00:58 Clear 48 8.9 33 0.7 57 57 NW 3 6 29.05 984 10 16 0.00 0.00
1:58 am 01:58 Clear 47 8.3 34 1 60 60 WNW 9 15 29.06 984 10 16 0.00 0.00
2:58 am 02:58 Clear 42 5.8 35 1.6 75 75 NW 16 26 29.10 985 10 16 0.00 0.00
3:58 am 03:58 Mostly Clear 41 5.2 30 -1.3 63 63 NW 14 22 29.11 986 10 16 0.00 0.00
4:43 am 04:43 Clear 43 6 25 -4 49 49 WNW 17 28 29.08 985 10 16 0.00 0.00
4:58 am 04:58 Clear 44 6.6 23 -4.8 44 44 NNW 14 22 29.08 985 10 16 0.00 0.00
5:58 am 05:58 Mostly Clear 45 7 20 -6.6 38 38 WNW 7 11 29.08 985 10 16 0.00 0.00
6:58 am 06:58 Mostly Cloudy 44 6.6 20 -6.7 38 38 SSW 7 11 29.10 986 10 16 0.00 0.00
7:58 am 07:58 Mostly Cloudy 44 6.9 21 -6.1 39 39 S 8 13 29.13 986 10 16 0.00 0.00
8:58 am 08:58 Mostly Cloudy 44 6.8 33 0.5 65 65 SE 6 9 29.14 987 10 16 0.00 0.00
9:58 am 09:58 Sunny 45 7.4 36 2.3 70 70 SSE 13 20 29.14 987 10 16 0.00 0.00
10:58 am 10:58 Partly Cloudy 49 9.3 35 1.5 59 59 SSE 16 26 29.14 987 10 16 0.00 0.00
11:18 am 11:18 Mostly Cloudy 46 8 34 1 62 62 SSE 12 19 29.17 988 10 16 0.00 0.00
11:39 am 11:39 Mostly Cloudy with Light Rain 46 8 34 1 62 62 SSE 10 17 29.17 988 10 16 0.00 0.00
11:58 am 11:58 Mostly Cloudy with Light Showers 46 7.6 36 2.1 68 68 SSE 12 19 29.17 988 10 16 0.00 0.00
12:08 pm 12:08 Mostly Cloudy 45 7 36 2 71 71 SSE 9 15 29.19 988 10 16 0.00 0.00
12:13 pm 12:13 Mostly Cloudy 45 7 36 2 71 71 SE 14 22 29.19 988 10 16 0.00 0.00
12:17 pm 12:17 Mostly Cloudy with Light Showers 45 7 36 2 71 71 SSE 12 19 29.19 988 10 16 0.00 0.00
12:58 pm 12:58 Mostly Cloudy with Light Showers 43 6.2 36 2.3 76 76 SSE 15 24 29.19 989 10 16 0.00 0.00
1:00 pm 13:00 Mostly Cloudy 43 6 36 2 76 76 S 15 24 29.18 988 10 16 0.00 0.00
1:02 pm 13:02 Mostly Cloudy with Light Showers 43 6 36 2 76 76 S 16 26 29.18 988 10 16 0.00 0.00
1:20 pm 13:20 Mostly Cloudy 41 5 37 3 87 87 S 13 20 29.18 988 10 16 0.00 0.00
1:58 pm 13:58 Mostly Cloudy 43 6.1 38 3.6 84 84 SSE 22 35 29.17 988 10 16 0.00 0.00
2:13 pm 14:13 Mostly Cloudy 41 5 37 3 87 87 SSE 17 28 29.20 989 10 16 0.00 0.00
2:46 pm 14:46 Cloudy with Light Rain 41 5 37 3 87 87 E 6 9 29.22 990 10 16 0.00 0.00
2:58 pm 14:58 Cloudy with Light Rain 40 4.7 38 3.5 92 92 NNE 17 28 29.25 991 10 16 0.01 0.25
2:59 pm 14:59 Cloudy with Rain 39 4 36 2 87 87 N 21 33 29.25 991 6 10 0.00 0.00
3:04 pm 15:04 Cloudy with Light Snow 36 2 34 1 93 93 NNW 16 26 29.28 992 1 2 0.00 0.00
3:24 pm 15:24 Cloudy with Snow Showers and Nearby Thunderstorms 36 2 34 1 93 93 NW 16 26 29.28 992 1 2 0.00 0.00
3:34 pm 15:34 Cloudy with Light Snow Showers 36 2 34 1 93 93 NNW 14 22 29.28 992 2 3 0.00 0.00
3:39 pm 15:39 Cloudy with Light Snow Showers 36 2 34 1 93 93 NW 8 13 29.28 992 2 4 0.00 0.00
3:44 pm 15:44 Cloudy with Light Snow Showers 36 2 34 1 93 93 N 13 20 29.28 992 3 5 0.00 0.00
3:49 pm 15:49 Cloudy with Light Snow 34 1 34 1 100 100 NNW 9 15 29.30 992 3 4 0.00 0.00
3:58 pm 15:58 Cloudy with Light Snow 35 1.6 33 0.7 94 94 NW 13 20 29.28 992 2 4 0.15 3.81
4:13 pm 16:13 Cloudy with Light Rain/Snow 36 2 34 1 93 93 NNW 15 24 29.27 991 10 16 0.00 0.00
4:23 pm 16:23 Cloudy with Light Rain/Snow 37 3 32 0 81 81 NNW 14 22 29.27 991 10 16 0.00 0.00
4:58 pm 16:58 Cloudy with Light Rain 37 2.9 34 0.9 87 87 N 15 24 29.25 991 10 16 0.13 3.30
5:08 pm 17:08 Cloudy with Light Rain 37 3 34 1 87 87 NNW 13 20 29.26 991 10 16 0.00 0.00
5:53 pm 17:53 Cloudy with Light Showers 39 4 34 1 81 81 NNW 10 17 29.28 991 10 16 0.00 0.00
5:58 pm 17:58 Cloudy with Light Showers 39 3.7 34 1.3 85 85 N 10 17 29.29 992 10 16 0.04 1.02
6:13 pm 18:13 Cloudy with Light Showers 37 3 36 2 93 93 NW 10 17 29.31 993 7 11 0.00 0.00
6:18 pm 18:18 Cloudy with Light Showers 37 3 36 2 93 93 NW 12 19 29.31 993 7 11 0.00 0.00
6:28 pm 18:28 Cloudy with Showers 36 2 32 0 87 87 NW 18 30 29.33 993 1 2 0.00 0.00
6:43 pm 18:43 Cloudy with Snow Showers 34 1 32 0 93 93 N 14 22 29.35 994 3 5 0.00 0.00
6:58 pm 18:58 Cloudy with Snow Showers 33 0.7 33 0.3 97 97 NW 17 28 29.35 994 3 5 0.02 0.51
7:28 pm 19:28 Cloudy with Snow 34 1 32 0 93 93 NNW 15 24 29.36 994 5 8 0.00 0.00
7:43 pm 19:43 Windy with Snow Likely 36 2 32 0 87 87 NW 23 37 29.35 994 3 4 0.00 0.00
7:53 pm 19:53 Windy with Snow Likely 36 2 32 0 87 87 NW 24 39 29.36 994 3 4 0.00 0.00
7:58 pm 19:58 Windy with Snow Likely 36 2 32 -0.1 86 86 NW 22 35 29.36 994 3 4 0.08 2.03
8:03 pm 20:03 Windy with Snow Likely 36 2 32 0 87 87 NW 23 37 29.34 994 4 6 0.00 0.00
8:28 pm 20:28 Cloudy with Light Rain 37 3 30 -1 75 75 NW 22 35 29.34 994 10 16 0.00 0.00
8:32 pm 20:32 Cloudy 37 3 30 -1 75 75 NW 22 35 29.34 994 10 16 0.00 0.00
8:58 pm 20:58 Cloudy 37 3 30 -0.9 76 76 NNW 17 28 29.36 994 10 16 0.07 1.78
8:59 pm 20:59 Cloudy with Light Showers 37 3 32 0 81 81 NNW 17 28 29.38 995 10 16 0.00 0.00
9:14 pm 21:14 Cloudy with Light Showers 36 2 32 0 87 87 NNW 16 26 29.39 995 10 16 0.00 0.00
9:58 pm 21:58 Cloudy with Light Showers 35 1.8 33 0.4 91 91 NNW 17 28 29.41 996 10 16 0.02 0.51
10:03 pm 22:03 Cloudy with Light Snow Showers 36 2 32 0 87 87 NNW 16 26 29.41 996 10 16 0.00 0.00
10:13 pm 22:13 Cloudy with Light Rain/Snow 34 1 32 0 93 93 NNW 14 22 29.44 997 10 16 0.00 0.00
10:48 pm 22:48 Cloudy with Light Rain/Snow 34 1 32 0 93 93 NNW 15 24 29.42 996 10 16 0.00 0.00
10:58 pm 22:58 Cloudy with Light Rain/Snow 34 1.3 32 0.2 92 92 NNW 15 24 29.43 997 10 16 0.00 0.00
11:13 pm 23:13 Mostly Cloudy with Light Rain/Snow 34 1 32 0 93 93 NNW 18 30 29.42 996 10 16 0.00 0.00
11:46 pm 23:46 Cloudy 34 1 32 0 93 93 N 18 30 29.44 997 10 16 0.00 0.00
11:50 pm 23:50 Cloudy with Light Showers 34 1 32 0 93 93 NNW 17 28 29.44 997 10 16 0.00 0.00
11:58 pm 23:58 Cloudy with Light Showers 33 0.5 31 -0.3 94 94 N 18 30 29.44 997 10 16 0.01 0.25

Powered by AerisWeather